Wind_Speed
25 26 26 26 27 27 25 22 21 22 22 22 23 24 23 23 22 22 21 20 20 19 19 18 17 17 16 16 16 15 14 13 13 12 11 10 10 9 9 8 8 7 7 7 6 6 6 5 5
27 28 29 30 30 30 27 24 24 24 24 25 25 25 25 25 24 23 22 21 21 21 20 19 19 18 18 17 17 17 16 15 14 14 13 12 11 10 10 10 9 9 8 8 7 7 7 6 6
29 30 31 32 33 31 28 27 26 27 27 28 28 28 27 27 26 25 24 23 23 23 22 21 20 20 20 19 19 18 18 17 16 15 14 14 13 12 11 10 10 10 9 9 9 9 8 8 8
30 31 33 34 33 31 30 29 29 30 30 30 30 30 29 28 28 27 26 26 25 24 24 24 23 22 21 20 20 20 19 19 18 17 16 15 14 13 13 12 11 11 10 10 10 10 9 9 9
31 32 34 34 33 32 31 31 31 32 32 32 32 32 31 30 30 29 28 28 27 27 26 26 26 25 24 23 22 21 21 20 19 19 18 16 16 15 14 14 13 12 12 12 11 11 10 10 9
32 32 33 33 33 33 33 33 32 33 33 33 33 33 33 32 31 31 30 30 29 29 29 28 28 27 26 25 24 23 22 21 21 20 19 18 17 16 16 15 14 14 14 14 13 13 12 12 12
33 34 33 33 34 35 34 34 34 33 34 34 34 34 34 33 33 32 32 32 31 31 30 30 29 28 28 27 26 25 23 23 22 22 21 20 19 18 18 17 16 16 15 15 15 15 14 14 14
34 34 34 34 34 35 35 35 34 34 35 35 35 36 35 34 34 34 34 33 33 32 32 31 31 30 29 29 28 27 26 25 24 24 23 22 21 20 19 19 18 18 17 17 17 17 16 16 16
33 35 34 33 34 35 35 35 36 36 36 36 36 36 36 35 35 35 35 35 35 34 34 33 33 32 31 30 29 29 28 27 26 25 25 24 23 23 22 21 20 20 19 19 19 18 18 17 17
34 35 34 34 35 35 35 36 37 37 37 37 37 37 37 37 37 36 36 36 36 36 35 35 35 34 33 33 32 31 30 29 28 27 26 26 25 25 24 23 22 21 21 20 20 19 18 18 18
33 34 34 35 36 36 36 36 37 39 39 39 38 38 38 38 38 38 38 38 37 37 37 36 36 35 35 35 34 33 32 31 31 30 29 28 27 26 25 25 24 23 23 22 22 20 20 19 19
32 32 34 35 36 36 36 36 37 38 39 40 40 39 39 39 38 39 39 39 38 38 38 38 37 37 36 36 36 35 34 34 33 31 30 30 29 28 28 27 26 25 25 25 24 23 22 21 21
32 32 33 34 35 36 37 38 38 38 39 41 41 41 41 41 40 40 40 40 39 39 39 39 39 38 38 37 37 37 36 36 35 34 32 32 31 30 30 29 29 28 27 26 26 25 24 23 23
32 32 33 34 35 36 37 38 39 39 40 41 42 43 43 43 42 41 41 41 41 40 40 40 40 39 39 38 38 38 38 37 36 35 35 34 33 32 32 31 30 30 29 28 27 27 26 25 25
32 33 33 35 36 36 37 37 38 38 40 41 42 43 44 44 44 43 42 43 42 42 42 41 41 41 40 40 39 39 39 39 38 37 37 36 35 34 34 32 32 31 31 30 30 29 28 27 26
31 33 34 35 36 36 36 37 37 38 39 41 42 43 44 44 44 45 44 43 43 43 43 42 42 42 42 41 40 39 39 40 39 39 39 38 37 36 35 35 33 33 33 32 32 31 30 29 28
31 31 32 33 35 36 37 37 38 38 39 41 41 41 43 44 44 45 45 45 44 44 43 43 44 43 43 42 42 41 40 41 41 39 39 39 39 40 38 37 36 36 35 34 34 33 32 31 30
29 30 30 32 34 35 36 37 37 38 38 40 41 41 42 43 44 44 45 46 46 46 45 44 43 43 43 44 43 43 42 42 42 42 40 41 41 41 40 39 39 38 37 36 36 35 34 33 33
29 29 29 30 32 33 34 35 35 37 38 39 40 40 41 42 43 44 46 46 46 46 46 45 44 43 44 45 44 43 43 43 43 43 42 42 43 43 41 41 39 38 38 38 38 37 36 35 34
28 29 29 29 30 31 32 33 33 35 36 37 39 40 40 41 42 43 45 46 46 46 47 47 46 45 44 44 45 44 44 44 44 45 45 45 43 43 42 42 40 39 38 38 38 38 38 36 36
26 27 27 28 29 30 31 31 31 32 33 35 37 39 40 40 41 43 44 45 45 45 47 46 47 46 46 46 45 45 45 44 43 44 44 45 45 44 43 43 42 41 39 38 38 39 39 38 37
26 26 27 28 29 29 30 30 30 31 31 33 35 37 38 39 38 41 43 44 45 46 47 47 47 47 47 47 47 46 46 45 45 44 43 44 45 44 43 44 44 43 42 42 40 40 40 39 38
25 24 26 27 28 28 28 28 27 28 30 32 34 35 37 38 37 39 42 44 45 46 48 47 47 47 47 46 47 46 46 47 46 46 45 45 44 44 44 43 44 45 44 44 43 41 41 41 40
23 24 24 26 27 27 26 27 26 26 27 30 32 34 37 38 38 38 41 43 44 46 47 48 48 48 47 47 47 47 47 48 47 47 47 46 46 45 45 44 44 44 45 45 44 43 42 42 41
22 23 23 23 24 25 24 26 25 25 27 28 30 32 36 39 40 39 39 42 43 44 46 47 48 49 48 48 48 47 47 48 49 49 48 47 47 46 45 45 44 43 44 45 45 45 44 43 42
22 21 20 21 23 23 23 24 23 23 25 27 28 29 33 37 41 41 40 41 42 43 45 46 48 48 48 48 48 47 48 48 48 49 50 49 48 48 47 47 45 45 45 45 46 46 46 46 44
21 21 20 22 23 22 23 22 22 23 24 25 27 28 30 33 37 39 39 40 41 43 44 45 47 48 48 48 48 48 47 48 48 48 48 49 49 49 48 49 49 47 47 47 46 46 46 46 45
20 20 20 22 23 24 23 22 23 23 24 25 26 28 28 31 34 35 37 36 38 42 43 44 46 47 48 48 49 48 49 48 49 49 49 48 48 49 49 49 50 49 48 47 47 47 48 48 48
20 20 21 22 22 24 24 22 21 23 24 25 26 28 28 30 33 34 36 36 37 40 40 42 44 46 47 47 48 49 49 49 49 49 50 49 50 51 51 49 49 49 50 49 49 49 49 48 48
21 21 21 22 22 24 25 23 22 23 24 25 26 27 29 30 32 33 35 36 37 39 41 42 44 45 45 45 46 48 49 50 50 49 49 51 51 51 51 51 50 49 50 51 50 49 49 48 48
Wind_Direction
263 262 261 258 257 257 257 257 255 250 247 244 244 243 243 243 242 240 238 237 235 233 232 232 231 231 231 231 231 230 228 228 228 228 228 230 231 232 233 237 239 242 242 242 245 250 254 259 261
264 263 261 259 258 258 258 257 255 252 248 245 244 243 243 243 243 241 240 238 236 235 234 233 232 231 232 232 232 232 231 229 229 228 228 229 232 236 239 239 239 241 242 243 245 250 256 259 263
264 263 261 260 259 260 259 257 254 252 248 245 243 243 243 243 243 243 241 240 238 236 235 235 234 233 234 233 233 234 232 231 231 230 230 232 233 234 239 240 237 237 241 244 246 251 258 260 263
267 264 262 261 261 260 259 256 253 251 249 246 244 244 243 243 243 242 242 240 239 238 236 236 235 235 235 235 234 234 233 232 233 233 232 234 234 235 238 238 235 237 242 246 248 251 257 261 261
268 266 263 262 261 258 256 253 251 250 249 248 245 244 243 242 242 241 241 240 239 239 237 237 237 236 236 235 234 235 235 233 233 233 233 234 236 237 238 238 240 241 243 245 247 249 254 257 260
268 266 264 262 259 257 255 253 250 249 249 248 247 245 244 242 242 241 240 240 240 239 238 237 237 237 236 236 235 234 235 234 233 234 233 234 236 237 239 240 242 245 246 246 248 251 253 256 260
269 267 265 263 260 258 255 253 251 248 248 248 247 245 243 242 241 241 240 239 238 238 238 237 237 237 236 236 236 235 235 235 235 235 235 235 237 238 240 242 244 246 248 249 249 251 254 257 261
269 267 265 263 261 258 255 252 250 249 248 247 246 245 243 242 241 240 239 239 238 238 238 237 236 236 236 236 236 237 236 236 236 237 237 237 238 240 241 243 245 247 250 252 252 252 255 257 259
270 267 265 263 261 259 255 253 251 249 248 246 246 245 243 242 241 240 239 239 239 238 238 237 237 236 236 236 236 237 237 237 237 237 238 238 240 241 242 245 247 248 249 252 253 255 256 257 258
269 268 266 265 262 260 256 253 251 249 247 245 244 244 243 241 240 240 240 240 239 239 238 238 237 237 236 236 236 237 238 239 239 238 239 240 241 242 243 245 247 248 249 251 254 257 257 257 258
269 267 266 264 261 259 256 253 251 249 247 244 243 243 243 242 240 240 240 240 240 239 239 239 238 238 237 237 236 237 239 239 239 240 240 240 241 243 244 246 247 248 249 251 254 255 257 256 257
270 268 265 262 260 259 256 254 252 250 248 245 242 242 243 243 242 240 240 239 240 240 240 240 240 240 238 237 237 237 238 239 239 240 241 242 242 243 244 246 247 248 249 250 252 254 257 256 257
269 268 266 264 262 260 257 255 253 250 248 245 242 241 241 242 242 241 240 240 240 240 240 241 240 240 240 239 239 239 239 240 240 240 241 241 242 243 244 245 246 248 249 251 252 253 255 257 258
268 268 266 263 262 261 258 256 254 250 248 246 243 241 240 241 242 242 240 240 240 240 240 241 241 240 239 239 239 239 239 240 240 240 240 241 242 244 244 245 245 247 248 250 252 252 254 256 257
269 266 266 264 262 261 260 257 255 251 248 245 243 241 240 240 241 241 241 240 240 239 240 241 240 239 239 238 239 239 239 240 241 241 241 242 242 243 243 244 245 246 248 249 250 251 253 254 256
270 267 266 264 263 260 259 257 256 252 248 245 243 241 240 240 240 240 240 240 239 239 239 240 240 239 239 238 238 240 239 239 240 240 241 242 242 242 243 245 246 247 248 249 251 251 252 253 254
270 268 267 265 264 261 260 258 256 253 250 246 243 242 240 239 240 240 239 239 238 238 238 239 240 239 239 239 238 240 240 239 240 241 241 242 243 243 244 245 247 248 249 249 250 250 251 252 253
274 271 270 267 265 262 261 259 256 255 251 248 244 241 240 239 239 239 238 238 238 237 237 238 238 239 238 239 239 239 240 241 241 241 242 243 243 244 245 246 247 248 248 249 249 250 250 251 252
279 274 273 270 268 266 263 261 257 255 251 248 244 241 239 239 238 238 237 238 237 237 237 238 238 238 239 239 239 240 242 242 241 241 241 242 243 244 245 246 245 246 247 247 247 249 250 251 252
281 277 275 272 270 269 266 262 258 255 252 248 244 240 239 238 238 238 237 237 237 237 237 237 238 237 239 239 240 241 241 242 243 242 242 242 243 244 244 245 245 244 245 246 248 249 250 250 251
284 280 277 276 272 269 269 264 258 254 253 249 243 239 237 236 236 236 237 237 236 236 236 236 237 238 239 240 241 242 242 241 242 242 242 243 243 243 244 244 244 244 244 245 247 249 249 250 251
287 283 280 277 274 270 269 267 258 254 252 248 243 239 237 237 238 236 236 237 236 236 236 236 237 238 239 240 241 241 242 242 243 244 244 244 244 244 245 245 244 244 244 246 247 248 250 249 251
292 286 282 278 275 273 270 268 261 256 252 248 244 242 238 238 240 239 237 237 236 237 236 236 237 238 239 240 240 241 241 241 242 243 244 245 245 245 245 246 246 246 246 246 246 247 248 250 252
297 292 286 281 277 274 272 269 266 262 257 251 247 244 240 239 240 240 238 236 236 237 236 236 237 238 240 240 241 241 242 242 242 243 244 245 246 245 245 245 246 247 246 245 246 246 248 250 252
299 296 291 286 281 276 274 269 268 266 262 258 254 247 243 241 241 242 240 237 238 237 236 237 238 239 240 241 241 242 243 243 242 243 244 244 244 244 244 244 245 245 245 245 246 248 249 251 252
302 299 295 290 284 279 277 273 270 268 266 262 258 252 246 244 243 242 242 241 241 239 238 238 239 240 240 240 241 242 243 243 243 244 244 244 244 245 245 245 246 245 245 246 247 248 250 251 251
302 297 295 293 288 285 281 279 272 268 269 266 260 257 250 247 244 244 244 243 242 240 240 241 241 241 241 242 242 242 243 243 243 243 245 245 245 245 246 247 248 248 248 249 250 251 251 252 252
300 297 296 294 290 289 287 283 279 272 270 268 263 259 254 252 248 247 246 244 242 240 242 243 243 243 242 243 242 244 245 245 244 244 246 246 246 247 248 248 247 248 249 250 251 251 250 252 252
296 294 293 292 290 290 290 288 284 279 275 271 266 261 258 256 252 250 248 247 245 242 243 243 244 244 243 244 243 245 246 247 247 247 246 247 247 247 248 248 247 247 248 249 250 251 250 251 251
298 295 292 290 289 288 288 289 286 282 281 277 270 264 262 261 256 252 249 248 247 245 245 245 245 245 245 245 246 247 247 248 248 248 249 248 248 248 247 248 248 248 249 249 249 250 250 251 251
Height
5798 5798 5799 5800 5801 5802 5804 5807 5809 5811 5812 5813 5814 5815 5817 5819 5822 5826 5827 5827 5829 5830 5832 5834 5835 5837 5839 5841 5842 5844 5845 5847 5848 5849 5851 5852 5854 5855 5856 5857 5858 5859 5860 5861 5862 5863 5864 5864 5865
5792 5793 5794 5794 5795 5796 5799 5802 5804 5805 5806 5807 5809 5810 5812 5814 5817 5819 5821 5823 5825 5827 5829 5830 5832 5834 5836 5838 5840 5841 5843 5844 5846 5847 5849 5850 5852 5853 5854 5856 5857 5858 5859 5860 5861 5862 5863 5863 5864
5786 5786 5787 5787 5788 5790 5794 5797 5798 5798 5800 5802 5803 5805 5807 5810 5812 5814 5817 5819 5821 5823 5825 5827 5829 5831 5833 5835 5836 5838 5840 5842 5843 5845 5846 5848 5849 5851 5852 5854 5855 5856 5857 5858 5860 5860 5861 5862 5862
5778 5778 5779 5780 5781 5784 5787 5789 5791 5792 5793 5795 5797 5799 5802 5805 5807 5809 5812 5814 5817 5819 5821 5823 5825 5827 5829 5831 5833 5835 5836 5838 5840 5842 5844 5845 5847 5849 5850 5852 5853 5854 5855 5856 5858 5858 5859 5860 5861
5770 5769 5769 5771 5773 5776 5779 5780 5782 5784 5786 5788 5791 5793 5796 5799 5801 5804 5806 5809 5811 5814 5816 5818 5820 5823 5825 5827 5829 5831 5833 5835 5837 5839 5841 5842 5844 5846 5847 5849 5850 5852 5853 5854 5855 5856 5857 5858 5859
5761 5760 5761 5762 5765 5767 5770 5772 5774 5776 5778 5780 5783 5786 5789 5793 5795 5798 5800 5803 5806 5808 5810 5813 5816 5818 5820 5822 5824 5827 5829 5831 5833 5835 5837 5839 5841 5843 5845 5846 5848 5849 5850 5852 5853 5854 5855 5856 5857
5752 5751 5752 5754 5755 5758 5761 5762 5765 5767 5770 5772 5775 5779 5782 5785 5788 5791 5794 5797 5800 5802 5805 5807 5810 5813 5815 5818 5820 5822 5824 5827 5829 5831 5833 5836 5838 5839 5841 5843 5845 5846 5848 5849 5850 5851 5852 5853 5854
5742 5742 5742 5744 5746 5748 5751 5753 5755 5758 5761 5764 5767 5770 5774 5778 5781 5784 5787 5790 5793 5796 5798 5801 5804 5807 5810 5812 5815 5817 5820 5822 5824 5827 5829 5832 5834 5835 5838 5839 5841 5843 5844 5846 5847 5848 5849 5850 5851
5733 5733 5733 5736 5737 5739 5741 5743 5746 5749 5752 5755 5758 5762 5766 5769 5773 5776 5780 5783 5786 5789 5792 5795 5798 5801 5804 5807 5810 5812 5815 5817 5819 5822 5824 5827 5829 5831 5833 5835 5837 5839 5840 5842 5843 5844 5846 5847 5848
5723 5724 5726 5728 5728 5729 5731 5733 5736 5739 5742 5745 5749 5753 5756 5760 5764 5768 5771 5775 5778 5782 5785 5788 5791 5794 5797 5800 5803 5806 5809 5812 5814 5817 5819 5821 5824 5826 5829 5831 5833 5834 5836 5838 5839 5841 5842 5843 5844
5714 5715 5717 5716 5717 5718 5720 5723 5725 5728 5732 5736 5740 5744 5747 5751 5755 5759 5763 5767 5770 5774 5778 5781 5784 5787 5790 5794 5797 5800 5803 5806 5808 5811 5813 5816 5819 5821 5823 5826 5828 5830 5832 5833 5835 5836 5838 5839 5840
5704 5706 5705 5706 5706 5708 5710 5712 5714 5717 5722 5725 5729 5733 5738 5742 5746 5750 5754 5758 5762 5766 5769 5773 5776 5779 5783 5786 5790 5793 5796 5799 5802 5805 5807 5810 5813 5815 5818 5820 5822 5824 5826 5828 5830 5831 5833 5834 5836
5695 5696 5695 5695 5696 5697 5700 5702 5704 5707 5710 5714 5718 5723 5727 5732 5736 5740 5745 5749 5753 5757 5760 5764 5768 5771 5775 5778 5782 5785 5789 5792 5795 5798 5801 5803 5806 5809 5812 5814 5817 5819 5821 5823 5825 5826 5828 5829 5831
5686 5685 5685 5685 5686 5687 5689 5691 5693 5696 5699 5702 5707 5711 5716 5721 5725 5730 5735 5739 5743 5747 5751 5755 5759 5763 5766 5770 5774 5777 5781 5784 5787 5790 5793 5796 5799 5802 5805 5808 5810 5813 5815 5817 5819 5821 5822 5824 5825
5676 5676 5676 5675 5675 5676 5678 5680 5682 5685 5687 5691 5695 5700 5705 5710 5715 5719 5724 5729 5734 5738 5742 5746 5750 5754 5758 5761 5765 5768 5772 5776 5779 5782 5786 5789 5792 5795 5798 5801 5803 5806 5808 5811 5812 5814 5816 5818 5820
5666 5666 5666 5666 5666 5666 5669 5670 5672 5673 5676 5679 5683 5688 5694 5699 5704 5709 5714 5719 5724 5728 5732 5736 5740 5744 5748 5752 5756 5759 5763 5767 5770 5773 5777 5781 5784 5787 5790 5793 5796 5799 5801 5803 5806 5808 5810 5812 5814
5657 5657 5657 5657 5656 5656 5657 5660 5662 5663 5665 5668 5672 5677 5682 5688 5693 5697 5703 5708 5713 5718 5723 5727 5731 5735 5739 5743 5747 5751 5754 5758 5761 5764 5768 5772 5775 5779 5782 5785 5788 5791 5794 5796 5798 5800 5803 5805 5807
5649 5648 5648 5648 5647 5647 5648 5650 5652 5653 5655 5658 5662 5666 5671 5677 5682 5687 5692 5697 5702 5707 5712 5717 5721 5726 5730 5734 5738 5742 5745 5749 5752 5755 5758 5763 5766 5769 5773 5776 5780 5782 5785 5788 5790 5793 5795 5797 5799
5641 5640 5640 5639 5639 5638 5639 5640 5642 5643 5645 5648 5651 5656 5661 5666 5671 5675 5680 5686 5691 5697 5702 5707 5712 5716 5720 5724 5728 5732 5736 5739 5743 5746 5749 5752 5756 5760 5764 5767 5770 5773 5776 5779 5782 5784 5787 5789 5791
5634 5632 5632 5631 5630 5630 5630 5631 5633 5634 5636 5638 5641 5646 5651 5656 5661 5664 5669 5675 5680 5686 5691 5697 5702 5706 5711 5715 5719 5723 5726 5730 5734 5737 5740 5743 5746 5750 5754 5758 5761 5764 5767 5770 5773 5775 5778 5781 5783
5627 5626 5625 5624 5623 5621 5622 5623 5625 5626 5627 5629 5632 5636 5640 5645 5650 5654 5659 5664 5670 5676 5681 5686 5691 5696 5701 5705 5708 5712 5716 5720 5724 5727 5730 5733 5736 5740 5744 5748 5751 5754 5757 5760 5763 5766 5769 5772 5774
5622 5620 5618 5616 5615 5614 5615 5614 5617 5618 5619 5621 5624 5627 5632 5636 5640 5644 5649 5654 5660 5666 5671 5675 5681 5685 5690 5694 5698 5702 5706 5710 5714 5717 5720 5723 5727 5730 5733 5737 5741 5744 5748 5751 5753 5756 5759 5762 5765
5616 5614 5612 5610 5608 5608 5608 5607 5610 5611 5612 5614 5617 5619 5623 5627 5631 5635 5640 5644 5650 5655 5660 5665 5670 5674 5678 5682 5687 5691 5695 5699 5703 5706 5710 5713 5716 5720 5723 5726 5730 5734 5738 5741 5744 5747 5750 5752 5755
5610 5608 5607 5604 5602 5602 5603 5601 5603 5604 5606 5608 5609 5611 5615 5618 5622 5626 5630 5635 5640 5644 5649 5654 5659 5664 5668 5672 5676 5681 5685 5689 5692 5696 5699 5703 5706 5710 5713 5716 5720 5723 5727 5731 5734 5737 5740 5743 5746
5605 5603 5600 5597 5596 5596 5596 5595 5597 5599 5599 5601 5602 5604 5606 5610 5613 5617 5621 5625 5630 5634 5639 5644 5648 5653 5657 5661 5666 5670 5674 5678 5682 5685 5689 5692 5695 5699 5703 5706 5710 5713 5716 5720 5723 5727 5730 5732 5735
5601 5598 5596 5593 5591 5591 5591 5590 5593 5593 5593 5594 5595 5596 5599 5601 5604 5608 5611 5616 5619 5624 5629 5634 5638 5642 5646 5651 5655 5659 5663 5667 5671 5674 5678 5681 5684 5688 5692 5695 5699 5702 5706 5709 5712 5716 5719 5722 5725
5596 5594 5592 5589 5587 5586 5585 5586 5588 5588 5587 5588 5589 5590 5591 5593 5596 5599 5602 5606 5610 5614 5619 5623 5627 5632 5636 5640 5644 5648 5652 5655 5659 5663 5666 5669 5673 5676 5680 5684 5688 5691 5694 5698 5701 5705 5707 5711 5713
5592 5590 5588 5585 5582 5581 5581 5581 5582 5582 5582 5582 5583 5583 5584 5586 5589 5591 5594 5597 5601 5605 5610 5613 5617 5621 5625 5629 5633 5637 5640 5643 5647 5651 5654 5658 5661 5664 5668 5672 5676 5679 5683 5686 5689 5693 5696 5699 5702
5589 5587 5583 5581 5579 5577 5575 5579 5577 5577 5576 5576 5576 5577 5578 5579 5582 5584 5586 5589 5592 5596 5600 5603 5607 5611 5614 5618 5621 5625 5628 5632 5635 5639 5643 5646 5649 5652 5656 5659 5663 5667 5671 5674 5677 5680 5684 5687 5690
5584 5582 5580 5578 5576 5573 5572 5576 5572 5571 5570 5570 5570 5570 5571 5572 5574 5576 5578 5581 5584 5588 5590 5593 5597 5600 5603 5607 5610 5613 5616 5620 5623 5626 5630 5633 5636 5640 5643 5646 5650 5654 5657 5661 5665 5668 5671 5675 5678